Race Results for
The Rockhopper Classic
vacaville, CA
(Event Information)
View By:
Cross Country on 06/08/2014

Note: Ranking points are NOT upgrade points. An explanation of ranking points can be found here.


Men - Cat 1/2/3 - Clydesdale (19 miles )

 Place Points NameCity, StateTime USAC #BibTeam
1 Larry St John   01:43:29  449 
2 Jeremy Budish   01:43:34  448 
3590.00 John Galvin   Concord, CA01:52:30 333042  459 Cushman Wakefield
DNF Shaun Jolley   01:08:49  455 
DNF Jose Ayala   01:24:18  446 

Men - Cat 1/2/3 - Single Speed (28.5 miles )

 Place Points NameCity, StateTime USAC #BibTeam
1540.00 Ron Shevock   Folsom, CA02:10:38 294396  392 Folsom Bike / Giant
2565.00 Josh Hughes   Sacramento, CA02:26:31 123925  398 Victory Velo
3590.00 Dylan Mcreynolds   Berkeley, CA02:34:15 23832  274 Cycles FANATI

Men - Cat 1/2/3 - 60+ (19 miles )

 Place Points NameCity, StateTime USAC #BibTeam
1 Brian Birch   Oakland, CA01:55:28 159719  451 Folsom Bike/Giant
2 Kurt Barton   Meadow Vista, CA02:10:08 356682  450 Victory Velo Racing

Men - Pro (28.5 miles )

 Place Points NameCity, StateTime USAC #BibTeam
1410.73 Clint Claassen   El Dorado Hills, CA01:58:28 278360  21 Santa Cruz / Fox
2434.09 Justin Thomas   Reno, NV02:00:15 136918  391 Andi
3457.45 Jim Hewett   Fairfax, CA02:01:55 226388  61 OSMO/Summit Bicycles
4480.81 Danny Mcnaughton   Martinez, CA02:05:35 110305  62 eden bicycles
5504.17 Davis Bentley   Banner Elk, NC02:12:09 219980  20 BarFly
6527.53 Justin Herrell   Petaluma, CA02:14:21 382692  26 Marin Bikes
DNF Colby Pastore   Petaluma, CA00:42:55 256426  399 Team Santa Cruz - X Fusion
DNF Philip Mooney   San Rafael , CA00:43:08 206962  63 Breezer Bikes

Men - Cat 1 - 15-18 (28.5 miles )

 Place Points NameCity, StateTime USAC #BibTeam
1466.36 Tofor Lewis   El Dorado Hills, CA02:03:00 428477  395 Folsom Bike
2492.27 Carson Benjamin   San Rafael, CA02:03:07 386166  69 Bear Development Team
3518.18 Eli Kranefuss   Mill Valley, CA02:07:10 295077  71 Bear Development Team
4544.09 Cole Davis   Folsom02:16:05 397835  394 Limitless Cycling Racing
5570.00 Jordan Byck   Kentfield02:23:09 406249  70 Redwood

Men - Cat 1 - 19-39 (28.5 miles )

 Place Points NameCity, StateTime USAC #BibTeam
1536.29 Andriu Abero   San Mateo02:04:52 135557  354 Muscle Milk / Specialized
2543.73 Shiloh Kantz   Fairfax, CA02:04:59 180321  77 
3551.17 Matt Fox   Woody Creek, CO02:05:32 301084  73 Colorado State University
4558.61 Antonio Miranda   Sacramento, CA02:07:05 404027  76 Kinetic cycles
5566.05 Damian Gonzalez   Stockton, CA02:11:52 178252  75 Michael David Winery Cycling
6573.49 Grant Cutler   Palo Alto, CA02:12:58 8454  72 Orta Seed Pots
7580.93 Steven Garza   San Francisco, CA02:14:01 186150  74 
8588.37 Kurtis Westbrook   Vacaville, CA02:23:45 302068  78 Team Velo Wrench

Men - Cat 1 - 40+ (28.5 miles )

 Place Points NameCity, StateTime USAC #BibTeam
1482.76 Mike Castaldo   Chico, CA02:06:07 6422  367 Chico Masters Cycling Team
2495.20 Gregory Anderson   Vacaville, CA02:10:00 90802  101 Team specialized Masters
3507.64 Troy Deibert   Truckee, CA02:11:35 382234  344 
4520.08 Leif Rohrbach   Concord, CA02:12:12 296786  253 Team Diablo
5532.52 David Benjamin   San Rafael, CA02:21:30 392732  79 
6544.96 John Christian   Danville, CA02:22:37 333186  225 LEOPARD/Scadattle p/b Lefty ODouls
7557.40 George Smith   Menlo Park, CA02:27:38 168005  393 Marc Pro-Strava
8569.84 Derek Oldfield   San Diego, CA02:27:43 298873  235 Spy/Giant
9582.28 Eric Bustos   Alameda, CA02:41:34 40678  397 Cal Giant/Specialized
DNF Bryan Berry   Boulder Creek, CA00:45:59 310943  279 Spokesman
DNF James Coats   Campbell, CA01:36:56 7200  396 Cal Giant/Specialized
DNF David Schaefer   Hayward, CA01:40:13 219605  269 Penvelo Racing

Men - Cat 2 - 15-18 (19 miles )

 Place Points NameCity, StateTime USAC #BibTeam
1 Trent Wilson   Fair Oaks, CA01:38:25 438534  401 CYCLING DEVELOPMENT

Men - Cat 2 - 19-29 (19 miles )

 Place Points NameCity, StateTime USAC #BibTeam
1540.00 Spencer Fields   Placerville, CA01:35:56 403410  404 Folsom Bike/Giant
2 Jose Becerra   01:38:03  403 Team diablo
3573.34 James Sears   Bozeman, MT01:43:13 328346  406 Davis Bike Club Race Team
4590.01 Alan Sanchez   Los Angeles, CA01:48:24 212963  462 
DNF Brendan Barrett   Davis, CA00:57:58 259467  402 Davis Bike Club Race Team

Men - Cat 2 - 30-39 (19 miles )

 Place Points NameCity, StateTime USAC #BibTeam
1517.29 Michael Do Couto   Salinas, CA01:31:16 366275  407 Platinum Performance Cycling Team
2524.56 Aaron Patterson   San Jose, CA01:33:03 334718  413 iRT-Reactor p/b JL Velo
3531.83 Brad Handel   San Francisco, CA01:33:35 429828  409 Fresh Air/Hunter Cycles
4539.10 Ian Newcomb   Sacramento, CA01:35:48 265515  412 US Military Cycling Powered by Boeing
5 Brandon Hayden   01:36:20  410 Double Bacon Cheese Burger/ Genentech Bike Club
6553.64 Adam Wade   San Francisco, CA01:36:47 423126  417 
7 Adam Weiss   01:37:42  463 
8568.18 Derald Sue   Alameda, CA01:39:14 220801  458 Stage 1
9575.45 James Swift   Vacaville, CA01:48:00 420129  416 Velo Wrench
10 Alan Johnson   01:56:51  411 Velo Wrench
11 Sergio Sanchez   01:57:13  415 Rockville Ratllers
DNF Frank Ravizza   Brentwood, CA00:45:08 309418  414 VSRT/DS Electric
DNF Kevin Duquette   00:52:28  408 Team Velo Wrench

Men - Cat 2 - 40-49 (19 miles )

 Place Points NameCity, StateTime USAC #BibTeam
1540.00 Geoff Black   Sacramento, CA01:32:20 133408  418 Rio Strada Racing
2545.00 Taos Ono   Hayward, CA01:33:34 438431  425 JABA RACING/OFF DA CHAIN RACING
3550.00 Shon Grabbe   San Jose, CA01:34:58 141499  422 Summit Bicycles
4555.00 Allen Yip   Alameda, CA01:38:24 237781  454 Team Oakland Cycling
5560.00 John Cunningham   Lafayette, CA01:41:49 221916  420 
6565.00 Alex Nourot   Davis, CA01:42:24 420132  457 
7570.00 Chad Roemer   Vacaville, CA01:45:08 729  428 Genentech Bike Club
8 Kyle Michaelis   01:46:54  453 
9580.00 Andrew Perry   Lawrencevillel, GA01:54:36 332092  426 
10 Dominic Titcombe   02:07:33  429 
11 Ron Petty   02:09:48  427 Trophy Husbands
DNF Aaron Burns   Walnut Creek, CA01:07:40 426443  419 
DNF Keith Jeffrey   Davis, CA01:06:10 106999  423 
DNF Stephen Langone   Redwood City, CA00:50:31 152079  424 Kryki Sports/Audi Racing
DNF Erik Week   Vacaville, CA00:47:59 166444  430 Velo Fratello/Bay Equity

Men - Cat 2 - 50-59 (19 miles )

 Place Points NameCity, StateTime USAC #BibTeam
1540.00 Chuck Spiteri   San Mateo, CA01:37:07 292488  460 Peninsula Velo Racing
2545.00 Shannon Lee   San Francisco, CA01:37:58 56721  433 Team Roaring Mouse
3 John Perez   01:41:13  434 Dueling Bandito
4555.00 Paul Kraybill   Mill Valley, CA01:46:56 19805  452 
5560.00 Ruben Villarreal   Pleasanton, CA01:48:07 140334  438 Fortner Gardens
6565.00 Lawrence Carbonneau   Mobile, AL01:52:15 6076  431 
7 Steve Thornbrugh   01:55:22  437 Rays Cycle
8 Doug Ward   01:59:40  439 
9580.00 Steve Hastie   Clovis Ca02:02:28 15373  432 Dayka-Hackett
10 Peter Byck   02:07:57  461 
11590.00 Daniel Russ   Aptos, CA02:11:31 30899  435 

Men - Cat 3 - 15-18 (9.5 miles )

 Place Points NameCity, StateTime USAC #BibTeam
1540.00 David Alcalay   Davis, CA00:53:27 419240  525 Davis Bike Club Race Team Juniors
2 Jaden Lombard   00:55:22  501 
3 Jordan Halpern   00:58:33  500 Miller Creek Middle School

Men - Cat 3 - 19-39 (9.5 miles )

 Place Points NameCity, StateTime USAC #BibTeam
1540.00 Rozel Tupaz   Bay Point, CA00:46:39 269119  532 Cushman & Wakefield Racing
2543.85 Jeff Bilodeau   Brentwood, CA00:46:45 305630  531 Cushman & Wakefield Racing
3 Saul Sandoval   00:50:48  527 Rockville Rattlers
4551.55 Shinnosuke Hasegawa   Alameda, CA00:52:15 395297  539 Team Oakland
5 Daniel Lira   00:52:47  529 
6 Philip Cheng   00:55:28  502 
7563.10 Stephen Roehrs II   Vacaville, CA00:56:03 422448  507 Team Velo Wrench
8 Teo Sanchez   00:58:34  538 
9 Riley Gray   01:02:36  503 Team rigid
10574.65 Zack Naqvi   Palo Alto, CA01:09:28 394521  505 University of California Los Angeles
11578.50 Damon Ropoulos   San Jose, CA01:11:55 274902  508 
12 Luis Sanchez   01:12:35  528 
13 Brian Russell   01:17:38  509 Velo Wrench Vacaville
14 Pete Perlegos   01:48:03  506 

Men - Cat 3 - 40-49 (9.5 miles )

 Place Points NameCity, StateTime USAC #BibTeam
1 Dave Hackett   00:43:59  510 Ventana USA
2556.67 Todd Roach   Discovery Bay, CA00:46:43 30039  530 Cushman & Wakefield
3573.34 Darryl Moxley   Orangevale, CA00:55:16 86490  511 US Military Cycling Team
4 Chris Owens   01:02:43  524 TNR

Men - Cat 3 - 50-59 (9.5 miles )

 Place Points NameCity, StateTime USAC #BibTeam
1 Mark Miller   00:53:57  517 
2547.14 James Sexton   Littleton, CO00:56:16 32241  533 
3 Michael Karp   01:02:32  516 
4561.42 Charles Wyatt   Brooklyn, NY01:02:39 292305  519 
5 Mark Helton   01:07:51  515 
6575.70 Dan Sweeney   Monument, CO01:21:31 107151  518 
7582.84 Bill Dewolf   Vallejo, CA01:49:44 237364  514 rockville bike rattlers
8 Don Nickells   02:08:32  526 

Men - Junior - 11-12 (9.5 miles )

 Place Points NameCity, StateTime USAC #BibTeam
1 Luke Lamperti   Sebastopol, CA0:44:24 355258  536 Team Swift/NorCal
2 Nye Yackle   Reno, NV1:56:34 307201  522 Yackle Brothers Racing

Men - Junior - 13-14 (9.5 miles )

 Place Points NameCity, StateTime USAC #BibTeam
1483.45 Jake Yackle   Reno, NV0:44:26 307192  523 Yackle Brothers Racing
2518.97 Gianni Lamperti   Sebastopol, CA0:46:06 355260  535 Team Swift/NorCal
3554.49 Isaiah Chass   Sebastopol0:50:22 320750  534 Team Swift
4590.01 Ethan Karp   Alameda, CA1:00:45 432804  521 

Women - Pro/Cat 1 (28.5 miles )

 Place Points NameCity, StateTime USAC #BibTeam
1540.00 Elle Anderson   San Francisco, CA02:20:33 275441  359 Vanderkitten Racing
2552.50 Tracie Nelson   San Luis Obispo, CA02:28:35 187659  68 
3565.00 Lisa Hulse   Chico, CA02:36:26 399567  66 Chico Masters Cycling Team
4577.50 Pamela Hwang   Sacramento, CA02:39:40 402746  67 
5590.00 Kimberly Fong   Berkeley, CA02:45:43 238713  65 Threshold Sports p/b Leadout Endurance Coaching

Women - Cat 1 - 15-18 (28.5 miles )

 Place Points NameCity, StateTime USAC #BibTeam
1 Ashley Albor   Orangevale, CA03:05:47 382981  315 Cycling Development

Women - Cat 2 - 19-39 (19 miles )

 Place Points NameCity, StateTime USAC #BibTeam
1540.00 Aja Cook   Vacaville, CA01:41:13 430685  441 Vacaville Dirt Dogs
2556.67 Laura Brayfield   Vacaville, CA01:55:55 218726  440 RAYS CYCLE
3573.34 Katherine Ketterer   Chico, CA01:56:29 438293  442 Chico Masters Cycling Team
4 Rachel Kagan   02:23:52  456 

Women - Cat 2 - 40+ (19 miles )

 Place Points NameCity, StateTime USAC #BibTeam
1540.00 Tanya Grossman   Castro Valley, CA01:49:44 356222  444 Los Gatos Elite Team
2565.00 Becky Brain   Pleasant Hill, CA02:02:40 85634  443 Suicide Squirrels
3590.00 Jayne Peterlin   San Ramon, CA02:05:46 228828  445 Racergirl.com

Women - Cat 3 - 19-39 (9.5 miles )

 Place Points NameCity, StateTime USAC #BibTeam
1 Christina Costa   San Leandro, CA01:18:08 406211  520 Eden Bicycles

Women - Cat 3 - 40+ (9.5 miles )

 Place Points NameCity, StateTime USAC #BibTeam
1 Andrea Madison   Vacaville01:07:56 403267  537 Velo Wrench of V.V.

Report missing or incorrect license numbers

Volkswagen
Bonk BreakerOSMOSierra NevadaSpyUSACDFCUOREShimano
UCI USA Cycling is the official governing body for all disciplines of competitive cycling in the United States. The 501c3, membership-based organization aims both to achieve sustained success in international cycling competition and to grow competitive cycling in America while delivering an exceptional customer experience.
View Children's Online Privacy Protection Policy
US Olympic Committee